KAR101 UUEE-UUEE

Flight info

Callsign KAR101
Flight time 0h 45m
Altitude 37000
Route KOGOM3H KOGOM DIMGI3F
Aircraft B772/H-SDE2E3FGHIJ5LORVWXY/LB1D1

Departure

Time 2026-05-05 14:39
Airport Sheremetyevo International Airport (UUEE)

Arrival

Time 2026-05-05 15:25
Airport Sheremetyevo International Airport (UUEE)
Time Latitude Longitude Altitude Speed Heading
2026-05-05 14:21 55.97440 37.39401 643 ft 0 kts 345°
2026-05-05 14:25 55.97437 37.39402 643 ft 3 kts 345°
2026-05-05 14:26 55.97412 37.39415 644 ft 4 kts 345°
2026-05-05 14:26 55.97390 37.39425 645 ft 4 kts 351°
2026-05-05 14:26 55.97372 37.39418 646 ft 4 kts 62°
2026-05-05 14:26 55.97363 37.39375 650 ft 4 kts 75°
2026-05-05 14:27 55.97356 37.39329 646 ft 4 kts 75°
2026-05-05 14:27 55.97351 37.39296 646 ft 0 kts 75°
2026-05-05 14:32 55.97367 37.39394 647 ft 21 kts 73°
2026-05-05 14:32 55.97399 37.39617 646 ft 15 kts 74°
2026-05-05 14:32 55.97418 37.39743 649 ft 5 kts 75°
2026-05-05 14:32 55.97419 37.39747 649 ft 0 kts 75°
2026-05-05 14:33 55.97419 37.39749 647 ft 1 kts 75°
2026-05-05 14:33 55.97418 37.39789 649 ft 5 kts 101°
2026-05-05 14:33 55.97385 37.39848 647 ft 9 kts 152°
2026-05-05 14:33 55.97353 37.39948 645 ft 12 kts 86°
2026-05-05 14:34 55.97374 37.40113 646 ft 16 kts 76°
2026-05-05 14:34 55.97418 37.40402 651 ft 31 kts 73°
2026-05-05 14:34 55.97470 37.40752 645 ft 29 kts 75°
2026-05-05 14:34 55.97523 37.41101 645 ft 29 kts 76°
2026-05-05 14:35 55.97574 37.41448 649 ft 29 kts 76°
2026-05-05 14:35 55.97626 37.41796 647 ft 29 kts 75°
2026-05-05 14:35 55.97677 37.42145 648 ft 29 kts 75°
2026-05-05 14:35 55.97727 37.42493 646 ft 29 kts 76°
2026-05-05 14:36 55.97761 37.42731 645 ft 6 kts 76°
2026-05-05 14:36 55.97743 37.42787 648 ft 6 kts 150°
2026-05-05 14:36 55.97702 37.42809 646 ft 6 kts 164°
2026-05-05 14:36 55.97662 37.42829 643 ft 6 kts 165°
2026-05-05 14:37 55.97609 37.42853 644 ft 6 kts 174°
2026-05-05 14:37 55.97604 37.42846 644 ft 0 kts 217°
2026-05-05 14:37 55.97604 37.42830 648 ft 2 kts 255°
2026-05-05 14:38 55.97555 37.42502 645 ft 65 kts 255°
2026-05-05 14:38 55.97371 37.41282 650 ft 136 kts 255°
2026-05-05 14:39 55.97081 37.39386 918 ft 166 kts 254°
2026-05-05 14:39 55.96809 37.37626 1578 ft 163 kts 256°
2026-05-05 14:39 55.96505 37.35678 2380 ft 163 kts 253°
2026-05-05 14:39 55.96181 37.33620 2721 ft 189 kts 253°
2026-05-05 14:40 55.95802 37.31212 2915 ft 216 kts 253°
2026-05-05 14:40 55.95373 37.28483 3185 ft 239 kts 254°
2026-05-05 14:40 55.94920 37.25597 3901 ft 243 kts 254°
2026-05-05 14:40 55.94466 37.22703 4757 ft 243 kts 254°
2026-05-05 14:41 55.94008 37.19786 5513 ft 245 kts 254°
2026-05-05 14:41 55.93548 37.16871 6299 ft 244 kts 254°
2026-05-05 14:41 55.93087 37.13951 6880 ft 246 kts 255°
2026-05-05 14:41 55.92614 37.10973 6991 ft 252 kts 255°
2026-05-05 14:42 55.92143 37.08010 7335 ft 252 kts 255°
2026-05-05 14:42 55.91696 37.05020 8092 ft 247 kts 261°
2026-05-05 14:42 55.91820 37.01939 8575 ft 256 kts 286°
2026-05-05 14:42 55.92642 36.99080 9240 ft 262 kts 301°
2026-05-05 14:43 55.93949 36.96755 9844 ft 269 kts 316°
2026-05-05 14:43 55.95500 36.94820 10004 ft 276 kts 319°
2026-05-05 14:43 55.97118 36.92934 9987 ft 276 kts 324°
2026-05-05 14:43 55.98977 36.91916 9997 ft 292 kts 349°
2026-05-05 14:44 56.01038 36.92407 10261 ft 306 kts 12°
2026-05-05 14:44 56.02984 36.94121 10816 ft 318 kts 27°
2026-05-05 14:44 56.04816 36.96332 11456 ft 322 kts 30°
2026-05-05 14:44 56.06668 36.98617 12209 ft 324 kts 29°
2026-05-05 14:45 56.08503 37.00823 13005 ft 326 kts 28°
2026-05-05 14:45 56.10407 37.03105 13687 ft 332 kts 32°
2026-05-05 14:45 56.11989 37.06173 13829 ft 346 kts 60°
2026-05-05 14:45 56.12762 37.10282 14041 ft 363 kts 77°
2026-05-05 14:46 56.13329 37.14742 14557 ft 372 kts 76°
2026-05-05 14:46 56.13949 37.19249 14839 ft 375 kts 75°
2026-05-05 14:46 56.14595 37.23810 14823 ft 377 kts 75°
2026-05-05 14:46 56.15239 37.28349 14827 ft 374 kts 75°
2026-05-05 14:47 56.15887 37.32941 14926 ft 388 kts 75°
2026-05-05 14:47 56.16802 37.37543 15070 ft 400 kts 57°
2026-05-05 14:47 56.18635 37.41316 15599 ft 403 kts 33°
2026-05-05 14:47 56.21094 37.43634 16280 ft 398 kts 12°
2026-05-05 14:48 56.23759 37.44293 17047 ft 388 kts 351°
2026-05-05 14:48 56.26353 37.43323 17790 ft 378 kts 332°
2026-05-05 14:48 56.28570 37.40896 18431 ft 370 kts 313°
2026-05-05 14:48 56.30157 37.37440 19038 ft 364 kts 296°
2026-05-05 14:49 56.31069 37.33250 19681 ft 360 kts 280°
2026-05-05 14:49 56.31341 37.28744 20299 ft 361 kts 266°
2026-05-05 14:49 56.30884 37.24305 20820 ft 363 kts 255°
2026-05-05 14:49 56.30188 37.19896 21287 ft 368 kts 255°
2026-05-05 14:50 56.29478 37.15430 21873 ft 371 kts 255°
2026-05-05 14:50 56.28792 37.11001 22502 ft 373 kts 256°
2026-05-05 14:50 56.28101 37.06410 23090 ft 376 kts 256°
2026-05-05 14:50 56.27421 37.01842 23618 ft 379 kts 256°
2026-05-05 14:51 56.26718 36.97257 24058 ft 378 kts 253°
2026-05-05 14:51 56.25479 36.93098 24242 ft 394 kts 232°
2026-05-05 14:51 56.23324 36.89925 24640 ft 409 kts 213°
2026-05-05 14:51 56.20606 36.88222 25158 ft 423 kts 194°
2026-05-05 14:52 56.17733 36.88256 25639 ft 439 kts 174°
2026-05-05 14:52 56.14901 36.90161 26073 ft 456 kts 153°
2026-05-05 14:52 56.12476 36.93878 26499 ft 472 kts 132°
2026-05-05 14:52 56.10832 36.99005 26914 ft 484 kts 111°
2026-05-05 14:53 56.10210 37.04974 27327 ft 490 kts 90°
2026-05-05 14:53 56.10709 37.10969 27738 ft 491 kts 69°
2026-05-05 14:53 56.12215 37.16477 28156 ft 489 kts 56°
2026-05-05 14:53 56.13932 37.21771 28503 ft 495 kts 61°
2026-05-05 14:54 56.15192 37.27318 28858 ft 501 kts 71°
2026-05-05 14:54 56.16153 37.33582 29281 ft 506 kts 75°
2026-05-05 14:54 56.17213 37.39581 29456 ft 505 kts 62°
2026-05-05 14:54 56.19133 37.44720 29732 ft 501 kts 41°
2026-05-05 14:55 56.21858 37.48466 30119 ft 490 kts 22°
2026-05-05 14:55 56.25006 37.50604 30521 ft 478 kts
2026-05-05 14:55 56.28275 37.51332 30919 ft 468 kts 354°
2026-05-05 14:55 56.31479 37.50870 31240 ft 461 kts 343°
2026-05-05 14:56 56.34544 37.49270 31519 ft 454 kts 331°
2026-05-05 14:56 56.37280 37.46520 31782 ft 446 kts 318°
2026-05-05 14:56 56.38822 37.44085 31943 ft 441 kts 308°
2026-05-05 14:56 56.40620 37.39659 32224 ft 435 kts 295°
2026-05-05 14:57 56.41974 37.33011 32561 ft 432 kts 281°
2026-05-05 14:57 56.42465 37.27648 32794 ft 433 kts 274°
2026-05-05 14:57 56.42531 37.23974 32937 ft 434 kts 266°
2026-05-05 14:57 56.41958 37.18654 33139 ft 433 kts 255°
2026-05-05 14:58 56.41118 37.13482 33375 ft 434 kts 255°
2026-05-05 14:58 56.40284 37.08251 33723 ft 433 kts 255°
2026-05-05 14:58 56.39474 37.02991 34051 ft 432 kts 256°
2026-05-05 14:58 56.38690 36.97762 34319 ft 432 kts 256°
2026-05-05 14:59 56.37914 36.92514 34621 ft 431 kts 256°
2026-05-05 14:59 56.37138 36.87280 34875 ft 432 kts 256°
2026-05-05 14:59 56.36315 36.82077 35047 ft 432 kts 250°
2026-05-05 14:59 56.34871 36.77296 35158 ft 439 kts 234°
2026-05-05 15:00 56.32753 36.73365 35241 ft 449 kts 222°
2026-05-05 15:00 56.31102 36.71236 35326 ft 454 kts 215°
2026-05-05 15:00 56.27356 36.68083 35692 ft 462 kts 202°
2026-05-05 15:00 56.24137 36.66777 35753 ft 474 kts 190°
2026-05-05 15:01 56.20854 36.66859 35789 ft 486 kts 175°
2026-05-05 15:01 56.17593 36.68616 35798 ft 496 kts 158°
2026-05-05 15:01 56.14704 36.72075 35822 ft 505 kts 140°
2026-05-05 15:01 56.12437 36.76919 35826 ft 511 kts 124°
2026-05-05 15:02 56.10915 36.82694 35813 ft 516 kts 109°
2026-05-05 15:02 56.10136 36.88959 35825 ft 518 kts 97°
2026-05-05 15:02 56.10114 36.95386 35800 ft 517 kts 82°
2026-05-05 15:02 56.10487 37.01713 35798 ft 511 kts 92°
2026-05-05 15:03 56.09903 37.07999 35802 ft 508 kts 112°
2026-05-05 15:03 56.08369 37.13489 35215 ft 483 kts 130°
2026-05-05 15:03 56.06087 37.17664 34135 ft 461 kts 150°
2026-05-05 15:03 56.03274 37.20114 32781 ft 440 kts 172°
2026-05-05 15:04 56.00311 37.20633 31432 ft 420 kts 189°
2026-05-05 15:04 55.97483 37.20073 30241 ft 409 kts 195°
2026-05-05 15:04 55.94706 37.19251 28962 ft 400 kts 196°
2026-05-05 15:04 55.91975 37.18261 27698 ft 389 kts 200°
2026-05-05 15:05 55.87301 37.14337 25321 ft 363 kts 224°
2026-05-05 15:05 55.85564 37.11190 24211 ft 352 kts 236°
2026-05-05 15:05 55.84269 37.07584 23271 ft 341 kts 245°
2026-05-05 15:06 55.83362 37.03770 22399 ft 327 kts 253°
2026-05-05 15:06 55.82812 36.99939 21589 ft 314 kts 261°
2026-05-05 15:06 55.82599 36.96160 20796 ft 304 kts 269°
2026-05-05 15:06 55.82712 36.92435 19931 ft 299 kts 276°
2026-05-05 15:07 55.83136 36.88862 19024 ft 296 kts 284°
2026-05-05 15:07 55.83861 36.85460 18224 ft 293 kts 292°
2026-05-05 15:07 55.84856 36.82329 17509 ft 286 kts 299°
2026-05-05 15:07 55.86059 36.79585 16848 ft 278 kts 307°
2026-05-05 15:08 55.87439 36.77224 16166 ft 273 kts 314°
2026-05-05 15:08 55.88975 36.75249 15444 ft 272 kts 321°
2026-05-05 15:08 55.90641 36.73675 14717 ft 271 kts 328°
2026-05-05 15:08 55.92423 36.72512 13892 ft 276 kts 336°
2026-05-05 15:09 55.94314 36.71797 13052 ft 279 kts 345°
2026-05-05 15:09 55.96229 36.71579 12272 ft 280 kts 353°
2026-05-05 15:09 55.98204 36.71875 11475 ft 283 kts
2026-05-05 15:09 56.00131 36.72694 10951 ft 292 kts 11°
2026-05-05 15:10 56.01908 36.74535 10520 ft 302 kts 40°
2026-05-05 15:10 56.03077 36.77512 10118 ft 311 kts 63°
2026-05-05 15:10 56.03685 36.81198 9467 ft 322 kts 81°
2026-05-05 15:10 56.03971 36.85287 8454 ft 343 kts 84°
2026-05-05 15:11 56.04222 36.89688 7324 ft 365 kts 84°
2026-05-05 15:11 56.04472 36.94284 6523 ft 377 kts 85°
2026-05-05 15:11 56.04732 36.98954 5969 ft 375 kts 84°
2026-05-05 15:11 56.04998 37.03582 5356 ft 376 kts 84°
2026-05-05 15:12 56.05273 37.08241 4886 ft 372 kts 84°
2026-05-05 15:12 56.05538 37.12686 4445 ft 367 kts 84°
2026-05-05 15:12 56.05806 37.17129 3910 ft 365 kts 84°
2026-05-05 15:12 56.06075 37.21611 3535 ft 358 kts 84°
2026-05-05 15:13 56.06339 37.26012 3108 ft 352 kts 84°
2026-05-05 15:13 56.06585 37.30151 2708 ft 318 kts 84°
2026-05-05 15:13 56.06810 37.33909 2479 ft 287 kts 84°
2026-05-05 15:13 56.07008 37.37270 2290 ft 261 kts 84°
2026-05-05 15:14 56.07190 37.40371 2107 ft 238 kts 84°
2026-05-05 15:14 56.07353 37.43173 2108 ft 218 kts 84°
2026-05-05 15:14 56.07510 37.45885 2092 ft 218 kts 84°
2026-05-05 15:14 56.07669 37.48637 2049 ft 230 kts 84°
2026-05-05 15:15 56.07831 37.51437 1982 ft 218 kts 84°
2026-05-05 15:15 56.07979 37.53996 1978 ft 194 kts 85°
2026-05-05 15:15 56.08111 37.56262 1974 ft 174 kts 85°
2026-05-05 15:15 56.08227 37.58346 1966 ft 167 kts 84°
2026-05-05 15:16 56.08343 37.60389 1973 ft 161 kts 84°
2026-05-05 15:16 56.08461 37.62419 1988 ft 168 kts 85°
2026-05-05 15:16 56.08575 37.64470 1989 ft 165 kts 84°
2026-05-05 15:16 56.08688 37.66479 1972 ft 156 kts 84°
2026-05-05 15:17 56.08795 37.68371 1989 ft 159 kts 85°
2026-05-05 15:17 56.08907 37.70373 1984 ft 162 kts 84°
2026-05-05 15:17 56.09018 37.72336 1981 ft 158 kts 84°
2026-05-05 15:17 56.09126 37.74257 1982 ft 152 kts 87°
2026-05-05 15:18 56.08919 37.76053 1988 ft 150 kts 131°
2026-05-05 15:18 56.08042 37.76902 1986 ft 142 kts 185°
2026-05-05 15:18 56.07130 37.76372 2016 ft 139 kts 203°
2026-05-05 15:18 56.06175 37.75853 2001 ft 143 kts 198°
2026-05-05 15:19 56.05235 37.75372 1978 ft 138 kts 200°
2026-05-05 15:19 56.04298 37.74868 1984 ft 142 kts 200°
2026-05-05 15:19 56.03356 37.74353 2005 ft 142 kts 201°
2026-05-05 15:19 56.02454 37.73684 1974 ft 137 kts 223°
2026-05-05 15:20 56.02051 37.72246 2011 ft 129 kts 256°
2026-05-05 15:20 56.01725 37.70690 1984 ft 136 kts 247°
2026-05-05 15:20 56.01362 37.69126 2009 ft 136 kts 251°
2026-05-05 15:20 56.01058 37.67533 1977 ft 135 kts 252°
2026-05-05 15:21 56.00797 37.65946 1999 ft 132 kts 254°
2026-05-05 15:21 56.00547 37.64335 2000 ft 136 kts 255°
2026-05-05 15:21 56.00301 37.62708 1979 ft 134 kts 254°
2026-05-05 15:21 56.00065 37.61132 2001 ft 132 kts 255°
2026-05-05 15:22 55.99826 37.59536 1983 ft 134 kts 256°
2026-05-05 15:22 55.99584 37.57905 1985 ft 137 kts 254°
2026-05-05 15:22 55.99335 37.56251 1977 ft 141 kts 255°
2026-05-05 15:22 55.99083 37.54552 1776 ft 140 kts 255°
2026-05-05 15:23 55.98829 37.52873 1584 ft 140 kts 254°
2026-05-05 15:23 55.98576 37.51198 1407 ft 140 kts 255°
2026-05-05 15:23 55.98327 37.49529 1261 ft 139 kts 257°
2026-05-05 15:23 55.98084 37.47824 1061 ft 144 kts 253°
2026-05-05 15:24 55.97824 37.46095 895 ft 145 kts 255°
2026-05-05 15:24 55.97573 37.44378 681 ft 138 kts 254°
2026-05-05 15:24 55.97349 37.42884 646 ft 113 kts 255°
2026-05-05 15:24 55.97251 37.42218 645 ft 87 kts 256°
2026-05-05 15:25 55.97155 37.41580 644 ft 19 kts 256°
2026-05-05 15:25 55.97132 37.41376 649 ft 11 kts 290°
2026-05-05 15:25 55.97178 37.41340 648 ft 8 kts 343°
2026-05-05 15:25 55.97245 37.41306 651 ft 13 kts 343°
2026-05-05 15:26 55.97333 37.41257 645 ft 13 kts 347°
2026-05-05 15:26 55.97422 37.41220 651 ft 13 kts 347°
2026-05-05 15:26 55.97495 37.41185 645 ft 7 kts 338°
2026-05-05 15:26 55.97521 37.41132 643 ft 6 kts 287°
2026-05-05 15:27 55.97515 37.41056 650 ft 7 kts 255°
2026-05-05 15:27 55.97485 37.40860 647 ft 50 kts 255°
2026-05-05 15:27 55.97347 37.39932 647 ft 74 kts 255°
2026-05-05 15:27 55.97256 37.39324 649 ft 26 kts 255°
2026-05-05 15:28 55.97306 37.39109 647 ft 21 kts 23°
2026-05-05 15:28 55.97399 37.39165 645 ft 0 kts 347°